H1 CPF 2 NER 2022 5 6 9 126 01 glonass127 H2 1106403 9127 37869 2022 5 6 0 0 0 2022 5 9 23 45 0 900 1 1 0 0 0 1 H9 10 0 59705 0.00000 0 2755346.127 25109824.678 -3399198.547 10 0 59705 900.00000 0 2766629.766 24472312.389 -6536619.822 10 0 59705 1800.00000 0 2628116.042 23470889.702 -9546642.553 10 0 59705 2700.00000 0 2296497.414 22142977.645 -12370463.470 10 0 59705 3600.00000 0 1737005.123 20536171.992 -14952845.111 10 0 59705 4500.00000 0 925154.920 18706290.926 -17243219.364 10 0 59705 5400.00000 0 -151944.045 16715088.885 -19196701.315 10 0 59705 6300.00000 0 -1494776.096 14627733.289 -20774991.332 10 0 59705 7200.00000 0 -3091139.071 12510151.565 -21947145.564 10 0 59705 8100.00000 0 -4916411.903 10426361.708 -22690198.107 10 0 59705 9000.00000 0 -6934360.233 8435900.349 -22989621.316 10 0 59705 9900.00000 0 -9098446.944 6591458.201 -22839614.421 10 0 59705 10800.00000 0 -11353592.603 4936823.419 -22243214.559 10 0 59705 11700.00000 0 -13638311.182 3505219.888 -21212228.241 10 0 59705 12600.00000 0 -15887130.119 2318110.069 -19766985.339 10 0 59705 13500.00000 0 -18033191.689 1384511.588 -17935921.561 10 0 59705 14400.00000 0 -20010925.039 700854.262 -15754999.074 10 0 59705 15300.00000 0 -21758675.463 251380.880 -13266978.433 10 0 59705 16200.00000 0 -23221179.838 9071.459 -10520558.012 10 0 59705 17100.00000 0 -24351784.256 -62951.618 -7569399.738 10 0 59705 18000.00000 0 -25114311.363 -9600.512 -4471062.220 10 0 59705 18900.00000 0 -25484500.489 118338.771 -1285863.806 10 0 59705 19800.00000 0 -25450962.239 266610.576 1924300.822 10 0 59705 20700.00000 0 -25015610.102 380033.744 5097166.401 10 0 59705 21600.00000 0 -24193553.893 405077.029 8171301.323 10 0 59705 22500.00000 0 -23012462.370 292356.840 11087287.196 10 0 59705 23400.00000 0 -21511424.304 -1047.432 13788851.557 10 0 59705 24300.00000 0 -19739357.601 -509556.816 16223933.323 10 0 59705 25200.00000 0 -17753034.090 -1257418.911 18345662.331 10 0 59705 26100.00000 0 -15614802.617 -2257465.304 20113236.354 10 0 59705 27000.00000 0 -13390104.518 -3510350.823 21492681.261 10 0 59705 27900.00000 0 -11144883.152 -5004305.436 22457482.244 10 0 59705 28800.00000 0 -8942992.800 -6715408.854 22989076.178 10 0 59705 29700.00000 0 -6843711.652 -8608376.956 23077197.590 10 0 59705 30600.00000 0 -4899459.020 -10637828.846 22720072.767 10 0 59705 31500.00000 0 -3153808.738 -12749984.041 21924458.755 10 0 59705 32400.00000 0 -1639878.739 -14884722.212 20705526.220 10 0 59705 33300.00000 0 -379161.982 -16977923.162 19086587.260 10 0 59705 34200.00000 0 619153.485 -18963992.985 17098671.648 10 0 59705 35100.00000 0 1358347.078 -20778474.318 14779957.304 10 0 59705 36000.00000 0 1853803.283 -22360634.364 12175063.273 10 0 59705 36900.00000 0 2132138.061 -23655924.167 9334216.109 10 0 59705 37800.00000 0 2229848.948 -24618206.910 6312303.152 10 0 59705 38700.00000 0 2191543.735 -25211661.416 3167828.687 10 0 59705 39600.00000 0 2067820.736 -25412279.429 -38208.365 10 0 59705 40500.00000 0 1912889.009 -25208891.487 -3243494.494 10 0 59705 41400.00000 0 1782028.853 -24603675.303 -6385616.688 10 0 59705 42300.00000 0 1729000.548 -23612122.138 -9403288.324 10 0 59705 43200.00000 0 1803512.605 -22262459.601 -12237560.802 10 0 59705 44100.00000 0 2048859.081 -20594552.558 -14832995.563 10 0 59705 45000.00000 0 2499828.990 -18658326.618 -17138771.426 10 0 59705 45900.00000 0 3180979.675 -16511779.486 -19109703.348 10 0 59705 46800.00000 0 4105350.639 -14218663.671 -20707150.414 10 0 59705 47700.00000 0 5273675.369 -11845938.624 -21899793.177 10 0 59705 48600.00000 0 6674127.204 -9461100.627 -22664263.373 10 0 59705 49500.00000 0 8282611.961 -7129504.048 -22985612.392 10 0 59705 50400.00000 0 10063596.174 -4911788.170 -22857608.444 10 0 59705 51300.00000 0 11971436.426 -2861518.889 -22282856.344 10 0 59705 52200.00000 0 13952153.434 -1023145.086 -21272737.744 10 0 59705 53100.00000 0 15945575.123 569644.361 -19847173.696 10 0 59705 54000.00000 0 17887757.177 1895094.713 -18034215.313 10 0 59705 54900.00000 0 19713577.620 2944043.025 -15869472.040 10 0 59705 55800.00000 0 21359394.796 3720034.057 -13395390.498 10 0 59705 56700.00000 0 22765655.812 4238892.836 -10660399.982 10 0 59705 57600.00000 0 23879345.168 4527775.497 -7717943.310 10 0 59705 58500.00000 0 24656170.613 4623742.233 -4625413.991 10 0 59705 59400.00000 0 25062395.205 4571916.306 -1443022.217 10 0 59705 60300.00000 0 25076240.083 4423310.126 1767386.786 10 0 59705 61200.00000 0 24688801.140 4232412.781 4943537.923 10 0 59705 62100.00000 0 23904443.658 4054642.706 8023931.062 10 0 59705 63000.00000 0 22740660.984 3943773.801 10949022.301 10 0 59705 63900.00000 0 21227405.693 3949443.467 13662359.473 10 0 59705 64800.00000 0 19405923.278 4114846.668 16111651.350 10 0 59705 65700.00000 0 17327138.432 4474711.544 18249751.831 10 0 59705 66600.00000 0 15049661.774 5053639.820 20035542.363 10 0 59705 67500.00000 0 12637499.587 5864879.823 21434698.161 10 0 59705 68400.00000 0 10157560.365 6909582.019 22420326.007 10 0 59705 69300.00000 0 7677059.617 8176567.284 22973463.644 10 0 59705 70200.00000 0 5260927.766 9642617.497 23083433.034 10 0 59705 71100.00000 0 2969325.483 11273277.195 22748042.004 10 0 59705 72000.00000 0 855366.407 13024134.528 21973630.888 10 0 59705 72900.00000 0 -1036861.155 14842530.668 20774963.010 10 0 59705 73800.00000 0 -2673893.753 16669629.535 19174960.045 10 0 59705 74700.00000 0 -4034048.451 18442764.804 17204285.595 10 0 59705 75600.00000 0 -5108087.203 20097969.544 14900782.651 10 0 59705 76500.00000 0 -5899361.968 21572585.641 12308773.097 10 0 59705 77400.00000 0 -6423433.469 22807845.892 9478230.037 10 0 59705 78300.00000 0 -6707178.029 23751321.754 6463836.252 10 0 59705 79200.00000 0 -6787418.215 24359134.085 3323944.717 10 0 59705 80100.00000 0 -6709133.099 24597832.903 119459.641 10 0 59705 81000.00000 0 -6523322.238 24445865.096 -3087341.275 10 0 59705 81900.00000 0 -6284612.833 23894565.481 -6234020.804 10 0 59705 82800.00000 0 -6048711.223 22948626.220 -9259208.150 10 0 59705 83700.00000 0 -5869807.567 21626021.517 -12103811.900 10 0 59705 84600.00000 0 -5798045.359 19957387.620 -14712194.597 10 0 59705 85500.00000 0 -5877165.443 17984881.782 -17033283.840 10 0 59706 0.00000 0 -6142427.287 15760566.600 -19021595.766 10 0 59706 900.00000 0 -6618898.870 13344385.553 -20638149.682 10 0 59706 1800.00000 0 -7320190.269 10801817.862 -21851251.137 10 0 59706 2700.00000 0 -8247687.726 8201307.877 -22637129.985 10 0 59706 3600.00000 0 -9390322.409 5611581.018 -22980416.802 10 0 59706 4500.00000 0 -10724885.152 3098959.236 -22874448.591 10 0 59706 5400.00000 0 -12216874.458 724790.143 -22321397.300 10 0 59706 6300.00000 0 -13821841.836 -1456901.344 -21332218.801 10 0 59706 7200.00000 0 -15487176.809 -3401439.864 -19926424.016 10 0 59706 8100.00000 0 -17154254.965 -5075120.277 -18131677.798 10 0 59706 9000.00000 0 -18760856.853 -6456355.376 -15983234.865 10 0 59706 9900.00000 0 -20243754.016 -7536304.441 -13523225.643 10 0 59706 10800.00000 0 -21541351.688 -8318959.129 -10799807.900 10 0 59706 11700.00000 0 -22596275.728 -8820686.602 -7866202.777 10 0 59706 12600.00000 0 -23357794.300 -9069252.885 -4779636.053 10 0 59706 13500.00000 0 -23783972.538 -9102371.617 -1600207.107 10 0 59706 14400.00000 0 -23843470.439 -8965842.985 1610290.947 10 0 59706 15300.00000 0 -23516909.929 -8711364.518 4789575.829 10 0 59706 16200.00000 0 -22797755.747 -8394108.439 7876081.499 10 0 59706 17100.00000 0 -21692675.514 -8070169.246 10810141.104 10 0 59706 18000.00000 0 -20221366.258 -7793989.524 13535125.227 10 0 59706 18900.00000 0 -18415856.740 -7615872.009 15998514.786 10 0 59706 19800.00000 0 -16319316.230 -7579681.323 18152889.802 10 0 59706 20700.00000 0 -13984420.223 -7720830.178 19956817.152 10 0 59706 21600.00000 0 -11471340.988 -8064632.590 21375622.793 10 0 59706 22500.00000 0 -8845445.392 -8625091.210 22382036.112 10 0 59706 23400.00000 0 -6174793.660 -9404168.035 22956696.310 10 0 59706 24300.00000 0 -3527540.133 -10391568.198 23088513.000 10 0 59706 25200.00000 0 -969340.566 -11565045.940 22774875.396 10 0 59706 26100.00000 0 1439129.815 -12891220.954 22021706.624 10 0 59706 27000.00000 0 3644447.828 -14326872.918 20843361.886 10 0 59706 27900.00000 0 5602411.929 -15820662.803 19262371.388 10 0 59706 28800.00000 0 7279630.009 -17315212.094 17309031.240 10 0 59706 29700.00000 0 8654660.575 -18749456.240 15020847.927 10 0 59706 30600.00000 0 9718659.998 -20061176.875 12441844.329 10 0 59706 31500.00000 0 10475508.137 -21189609.115 9621737.982 10 0 59706 32400.00000 0 10941405.850 -22078016.175 6615004.756 10 0 59706 33300.00000 0 11143959.530 -22676123.704 3479843.741 10 0 59706 34200.00000 0 11120789.285 -22942310.882 277061.717 10 0 59706 35100.00000 0 10917717.717 -22845464.394 -2931102.255 10 0 59706 36000.00000 0 10586614.537 -22366414.608 -6082189.584 10 0 59706 36900.00000 0 10182987.553 -21498890.222 -9114748.140 10 0 59706 37800.00000 0 9763422.283 -20249947.623 -11969546.462 10 0 59706 38700.00000 0 9382979.740 -18639853.380 -14590750.850 10 0 59706 39600.00000 0 9092664.530 -16701421.739 -16927040.169 10 0 59706 40500.00000 0 8937073.029 -14478832.595 -18932634.335 10 0 59706 41400.00000 0 8952324.108 -12025977.978 -20568214.128 10 0 59706 42300.00000 0 9164362.898 -9404405.924 -21801712.120 10 0 59706 43200.00000 0 9587712.091 -6680948.100 -22608957.507 10 0 59706 44100.00000 0 10224725.760 -3925131.500 -22974160.856 10 0 59706 45000.00000 0 11065378.768 -1206484.015 -22890228.331 10 0 59706 45900.00000 0 12087601.433 1408151.873 -22358898.971 10 0 59706 46800.00000 0 13258145.222 3857183.545 -21390702.430 10 0 59706 47700.00000 0 14533942.139 6086602.490 -20004738.697 10 0 59706 48600.00000 0 15863898.983 8051990.474 -18228285.204 10 0 59706 49500.00000 0 17191048.989 9720114.188 -16096240.449 10 0 59706 50400.00000 0 18454967.995 11070042.951 -13650416.807 10 0 59706 51300.00000 0 19594351.318 12093745.020 -10938698.322 10 0 59706 52200.00000 0 20549641.024 12796140.578 -8014081.908 10 0 59706 53100.00000 0 21265591.678 13194612.782 -4933622.766 10 0 59706 54000.00000 0 21693665.999 13318001.420 -1757306.366 10 0 59706 54900.00000 0 21794159.759 13205125.427 1453129.543 10 0 59706 55800.00000 0 21537967.466 12902899.986 4635398.801 10 0 59706 56700.00000 0 20907916.129 12464130.472 7727872.715 10 0 59706 57600.00000 0 19899613.084 11945078.201 10670764.586 10 0 59706 58500.00000 0 18521774.422 11402901.553 13407270.632 10 0 59706 59400.00000 0 16796022.337 10893080.214 15884646.533 10 0 59706 60300.00000 0 14756161.382 10466930.003 18055200.733 10 0 59706 61200.00000 0 12446964.911 10169311.064 19877187.526 10 0 59706 62100.00000 0 9922522.329 10036623.550 21315585.246 10 0 59706 63000.00000 0 7244215.091 10095172.609 22342747.170 10 0 59706 63900.00000 0 4478403.859 10359969.135 22938914.850 10 0 59706 64800.00000 0 1693920.248 10834014.959 23092586.013 10 0 59706 65700.00000 0 -1040536.030 11508101.639 22800731.274 10 0 59706 66600.00000 0 -3658990.045 12361131.390 22068856.073 10 0 59706 67500.00000 0 -6100670.580 13360947.882 20910906.505 10 0 59706 68400.00000 0 -8312275.389 14465644.126 19349019.815 10 0 59706 69300.00000 0 -10249931.156 15625295.371 17413122.671 10 0 59706 70200.00000 0 -11880768.378 16784047.439 15140382.690 10 0 59706 71100.00000 0 -13184046.325 17882476.049 12574521.069 10 0 59706 72000.00000 0 -14151780.884 18860120.750 9764996.866 10 0 59706 72900.00000 0 -14788848.056 19658089.048 6766075.985 10 0 59706 73800.00000 0 -15112557.178 20221622.265 3635800.514 10 0 59706 74700.00000 0 -15151709.827 20502515.025 434876.672 10 0 59706 75600.00000 0 -14945182.120 20461285.269 -2774498.192 10 0 59706 76500.00000 0 -14540088.577 20069001.099 -5929847.120 10 0 59706 77400.00000 0 -13989604.010 19308684.362 -8969639.491 10 0 59706 78300.00000 0 -13350535.248 18176228.278 -11834506.456 10 0 59706 79200.00000 0 -12680745.987 16680786.669 -14468420.467 10 0 59706 80100.00000 0 -12036545.102 14844614.933 -16819813.744 10 0 59706 81000.00000 0 -11470151.035 12702366.430 -18842611.568 10 0 59706 81900.00000 0 -11027342.066 10299871.551 -20497157.934 10 0 59706 82800.00000 0 -10745394.590 7692449.471 -21751013.255 10 0 59706 83700.00000 0 -10651399.187 4942822.883 -22579606.728 10 0 59706 84600.00000 0 -10761027.894 2118723.445 -22966729.198 10 0 59706 85500.00000 0 -11077806.375 -709710.722 -22904855.922 10 0 59707 0.00000 0 -11592922.545 -3472635.050 -22395292.643 10 0 59707 900.00000 0 -12285580.081 -6103183.155 -21448141.877 10 0 59707 1800.00000 0 -13123880.374 -8540018.853 -20082091.510 10 0 59707 2700.00000 0 -14066195.180 -10729653.107 -18324029.993 10 0 59707 3600.00000 0 -15062969.372 -12628425.238 -16208497.726 10 0 59707 4500.00000 0 -16058875.670 -14204067.769 -13776986.901 10 0 59707 5400.00000 0 -16995228.008 -15436790.872 -11077105.506 10 0 59707 6300.00000 0 -17812549.576 -16319843.531 -8161623.772 10 0 59707 7200.00000 0 -18453185.415 -16859531.115 -5087423.790 10 0 59707 8100.00000 0 -18863848.300 -17074692.350 -1914374.556 10 0 59707 9000.00000 0 -18997990.135 -16995661.601 1295844.131 10 0 59707 9900.00000 0 -18817899.332 -16662763.793 4480944.826 10 0 59707 10800.00000 0 -18296436.900 -16124408.612 7579238.759 10 0 59707 11700.00000 0 -17418339.825 -15434866.699 10530821.947 10 0 59707 12600.00000 0 -16181038.885 -14651822.992 13278718.726 10 0 59707 13500.00000 0 -14594958.547 -13833810.700 15769961.897 10 0 59707 14400.00000 0 -12683288.019 -13037633.278 17956590.499 10 0 59707 15300.00000 0 -10481234.198 -12315881.335 19796548.145 10 0 59707 16200.00000 0 -8034788.071 -11714646.614 21254467.144 10 0 59707 17100.00000 0 -5399055.344 -11271526.489 22302325.887 10 0 59707 18000.00000 0 -2636219.391 -11014000.121 22919969.144 10 0 59707 18900.00000 0 186781.276 -10958242.095 23095483.248 10 0 59707 19800.00000 0 3000767.674 -11108421.662 22825420.350 10 0 59707 20700.00000 0 5736926.246 -11456516.176 22114868.025 10 0 59707 21600.00000 0 8329401.585 -11982646.807 20977362.777 10 0 59707 22500.00000 0 10717771.834 -12655923.632 19434648.124 10 0 59707 23400.00000 0 12849306.794 -13435766.750 17516280.250 10 0 59707 24300.00000 0 14680917.064 -14273650.615 15259086.568 10 0 59707 25200.00000 0 16180714.253 -15115201.261 12706484.932 10 0 59707 26100.00000 0 17329117.369 -15902561.029 9907673.934 10 0 59707 27000.00000 0 18119458.475 -16576923.654 6916707.183 10 0 59707 27900.00000 0 18558060.838 -17081134.450 3791467.124 10 0 59707 28800.00000 0 18663784.292 -17362246.510 592556.513 10 0 59707 29700.00000 0 18467054.889 -17373924.473 -2617872.095 10 0 59707 30600.00000 0 18008417.712 -17078592.699 -5777326.531 10 0 59707 31500.00000 0 17336672.364 -16449234.496 -8824200.835 10 0 59707 32400.00000 0 16506669.005 -15470763.078 -11698991.805 10 0 59707 33300.00000 0 15576858.023 -14140902.639 -14345480.924 10 0 59707 34200.00000 0 14606697.705 -12470538.624 -16711856.420 10 0 59707 35100.00000 0 13654031.070 -10483518.977 -18751751.327 10 0 59707 36000.00000 0 12772544.859 -8215911.843 -20425174.931 10 0 59707 36900.00000 0 12009420.540 -5714748.921 -21699317.204 10 0 59707 37800.00000 0 11403279.046 -3036306.086 -22549208.665 10 0 59707 38700.00000 0 10982508.226 -243993.069 -22958221.337 10 0 59707 39600.00000 0 10764045.373 2594058.791 -22918400.039 10 0 59707 40500.00000 0 10752667.150 5407608.712 -22430617.134 10 0 59707 41400.00000 0 10940817.062 8127007.942 -21504547.819 10 0 59707 42300.00000 0 11308977.074 10685876.125 -20158467.066 10 0 59707 43200.00000 0 11826566.213 13023639.597 -18418873.230 10 0 59707 44100.00000 0 12453326.156 15087824.973 -16319947.130 10 0 59707 45000.00000 0 13141132.789 16836012.167 -13902858.949 10 0 59707 45900.00000 0 13836154.560 18237366.217 -11214938.439 10 0 59707 46800.00000 0 14481263.906 19273685.672 -8308726.643 10 0 59707 47700.00000 0 15018597.648 19939926.255 -5240929.733 10 0 59707 48600.00000 0 15392156.558 20244181.198 -2071297.179 10 0 59707 49500.00000 0 15550333.361 20207122.780 1138552.382 10 0 59707 50400.00000 0 15448262.304 19860932.225 4326333.498 10 0 59707 51300.00000 0 15049891.778 19247766.454 7430300.573 10 0 59707 52200.00000 0 14329693.854 18417829.009 10390435.460 10 0 59707 53100.00000 0 13273940.498 17427128.290 13149593.534 10 0 59707 54000.00000 0 11881494.614 16335018.383 15654587.386 10 0 59707 54900.00000 0 10164084.477 15201625.729 17857189.040 10 0 59707 55800.00000 0 8146051.386 14085268.627 19715033.504 10 0 59707 56700.00000 0 5863581.714 13039975.947 21192408.823 10 0 59707 57600.00000 0 3363455.199 12113206.539 22260919.920 10 0 59707 58500.00000 0 701360.528 11343862.158 22900015.819 10 0 59707 59400.00000 0 -2060153.793 10760674.393 23097372.098 10 0 59707 60300.00000 0 -4854011.005 10381030.859 22849122.635 10 0 59707 61200.00000 0 -7611126.632 10210288.232 22159936.843 10 0 59707 62100.00000 0 -10263017.086 10241600.221 21042940.837 10 0 59707 63000.00000 0 -12744391.713 10456267.979 19519483.091 10 0 59707 63900.00000 0 -14995623.743 10824599.550 17618747.497 10 0 59707 64800.00000 0 -16965000.046 11307244.285 15377219.003 10 0 59707 65700.00000 0 -18610657.670 11856948.691 12838009.507 10 0 59707 66600.00000 0 -19902127.009 12420662.547 10050054.237 10 0 59707 67500.00000 0 -20821416.824 12941909.035 7067191.439 10 0 59707 68400.00000 0 -21363594.466 13363320.870 3947140.763 10 0 59707 69300.00000 0 -21536835.058 13629236.418 750398.342 10 0 59707 70200.00000 0 -21361935.349 13688246.140 -2460931.185 10 0 59707 71100.00000 0 -20871310.407 13495580.647 -5624343.477 10 0 59707 72000.00000 0 -20107513.422 13015237.247 -8678160.156 10 0 59707 72900.00000 0 -19121339.651 12221752.097 -11562746.445 10 0 59707 73800.00000 0 -17969593.841 11101539.474 -14221695.416 10 0 59707 74700.00000 0 -16712615.589 9653737.803 -16602953.595 10 0 59707 75600.00000 0 -15411668.126 7890523.022 -18659863.711 10 0 59707 76500.00000 0 -14126302.425 5836872.738 -20352101.904 10 0 59707 77400.00000 0 -12911810.048 3529788.545 -21646488.844 10 0 59707 78300.00000 0 -11816874.484 1017007.374 -22517657.068 10 0 59707 79200.00000 0 -10881522.233 -1644744.889 -22948560.044 10 0 59707 80100.00000 0 -10135461.788 -4391884.275 -22930811.976 10 0 59707 81000.00000 0 -9596881.695 -7156394.104 -22464851.329 10 0 59707 81900.00000 0 -9271758.653 -9868442.221 -21559924.918 10 0 59707 82800.00000 0 -9153704.313 -12459079.074 -20233893.487 10 0 59707 83700.00000 0 -9224355.836 -14862902.494 -18512863.629 10 0 59707 84600.00000 0 -9454291.618 -17020576.781 -16430654.652 10 0 59707 85500.00000 0 -9804430.896 -18881100.208 -14028112.585 10 0 59708 0.00000 0 -10227855.119 -20403726.370 -11352286.916 10 0 59708 900.00000 0 -10671971.430 -21559460.885 -8455486.659 10 0 59708 1800.00000 0 -11080923.515 -22332070.783 -5394239.925 10 0 59708 2700.00000 0 -11398146.435 -22718569.787 -2228174.286 10 0 59708 3600.00000 0 -11568955.358 -22729160.307 981155.119 10 0 59708 4500.00000 0 -11543058.261 -22386639.010 4171467.151 10 0 59708 5400.00000 0 -11276886.498 -21725294.265 7280961.685 10 0 59708 6300.00000 0 -10735645.685 -20789344.874 10249508.687 10 0 59708 7200.00000 0 -9895001.849 -19630988.070 13019796.816 10 0 59708 8100.00000 0 -8742333.592 -18308140.236 15538420.621 10 0 59708 9000.00000 0 -7277499.362 -16881965.591 17756887.147 10 0 59708 9900.00000 0 -5513089.221 -15414295.904 19632524.665 10 0 59708 10800.00000 0 -3474151.498 -13965047.737 21129278.573 10 0 59708 11700.00000 0 -1197405.937 -12589743.008 22218381.680 10 0 59708 12600.00000 0 1270024.502 -11337233.810 22878888.320 10 0 59708 13500.00000 0 3872312.008 -10247723.621 23098064.066 10 0 59708 14400.00000 0 6546984.362 -9351164.856 22871624.971 10 0 59708 15300.00000 0 9227264.946 -8666097.485 22203822.455 10 0 59708 16200.00000 0 11844598.744 -8198975.837 21107372.133 10 0 59708 17100.00000 0 14331263.157 -7944011.141 19603227.070 10 0 59708 18000.00000 0 16622958.508 -7883536.877 17720198.213 10 0 59708 18900.00000 0 18661273.440 -7988882.879 15494427.114 10 0 59708 19800.00000 0 20395924.625 -8221723.462 12968718.440 10 0 59708 20700.00000 0 21786678.392 -8535845.259 10191742.429 10 0 59708 21600.00000 0 22804874.080 -8879262.712 7217119.953 10 0 59708 22500.00000 0 23434484.419 -9196594.068 4102405.471 10 0 59708 23400.00000 0 23672666.664 -9431599.013 907985.746 10 0 59708 24300.00000 0 23529779.102 -9529771.198 -2304085.525 10 0 59708 25200.00000 0 23028859.674 -9440875.498 -5471295.036 10 0 59708 26100.00000 0 22204586.263 -9121321.092 -8531895.263 10 0 59708 27000.00000 0 21101760.494 -8536267.409 -11426123.074 10 0 59708 27900.00000 0 19773377.628 -7661370.587 -14097386.212 10 0 59708 28800.00000 0 18278363.518 -6484092.928 -16493392.380 10 0 59708 29700.00000 0 16679074.390 -5004516.228 -18567196.625 10 0 59708 30600.00000 0 15038666.035 -3235621.052 -20278144.274 10 0 59708 31500.00000 0 13418445.051 -1203017.188 -21592688.705 10 0 59708 32400.00000 0 11875315.798 1055865.689 -22485066.142 10 0 59708 33300.00000 0 10459432.685 3493094.595 -22937812.780 10 0 59708 34200.00000 0 9212158.514 6052002.223 -22942113.103 10 0 59708 35100.00000 0 8164416.085 8669333.914 -22497972.142 10 0 59708 36000.00000 0 7335503.010 11277681.724 -21614208.367 10 0 59708 36900.00000 0 6732419.344 13808102.260 -20308267.901 10 0 59708 37800.00000 0 6349735.112 16192807.247 -18605864.758 10 0 59708 38700.00000 0 6170001.288 18367812.935 -16540455.493 10 0 59708 39600.00000 0 6164684.204 20275436.447 -14152560.324 10 0 59708 40500.00000 0 6295580.832 21866534.350 -11488945.918 10 0 59708 41400.00000 0 6516651.838 23102390.179 -8601687.788 10 0 59708 42300.00000 0 6776191.821 23956173.129 -5547132.737 10 0 59708 43200.00000 0 7019242.179 24413908.927 -2384783.380 10 0 59708 44100.00000 0 7190142.428 24474924.947 823871.925 10 0 59708 45000.00000 0 7235110.737 24151754.055 4016559.728 10 0 59708 45900.00000 0 7104744.083 23469504.624 7131428.769 10 0 59708 46800.00000 0 6756332.751 22464726.241 10108240.425 10 0 59708 47700.00000 0 6155892.540 21183821.392 12889519.768 10 0 59708 48600.00000 0 5279830.571 19681071.588 15421646.203 10 0 59708 49500.00000 0 4116176.328 18016361.562 17655864.422 10 0 59708 50400.00000 0 2665327.939 16252696.707 19549198.290 10 0 59708 51300.00000 0 940283.672 14453616.484 21065252.573 10 0 59708 52200.00000 0 -1033650.423 12680609.792 22174889.639 10 0 59708 53100.00000 0 -3219664.646 10990637.630 22856770.439 10 0 59708 54000.00000 0 -5570729.208 9433863.328 23097751.439 10 0 59708 54900.00000 0 -8031305.796 8051681.980 22893131.334 10 0 59708 55800.00000 0 -10539418.734 6875128.552 22246743.529 10 0 59708 56700.00000 0 -13029003.023 5923728.956 21170892.606 10 0 59708 57600.00000 0 -15432435.342 5204840.713 19686135.149 10 0 59708 58500.00000 0 -17683146.256 4713510.434 17820907.567 10 0 59708 59400.00000 0 -19718208.109 4432854.592 15611005.923 10 0 59708 60300.00000 0 -21480793.289 4334948.977 13098925.128 10 0 59708 61200.00000 0 -22922401.700 4382191.389 10333067.555 10 0 59708 62100.00000 0 -24004764.912 4529082.442 7366833.564 10 0 59708 63000.00000 0 -24701346.646 4724351.474 4257609.128 10 0 59708 63900.00000 0 -24998375.112 4913339.582 1065668.281 10 0 59708 64800.00000 0 -24895361.621 5040539.969 -2146989.583 10 0 59708 65700.00000 0 -24405080.948 5052188.192 -5317845.498 10 0 59708 66600.00000 0 -23553011.524 4898791.701 -8385086.006 10 0 59708 67500.00000 0 -22376256.523 4537489.568 -11288822.694 10 0 59708 68400.00000 0 -20921989.364 3934139.694 -13972280.855 10 0 59708 69300.00000 0 -19245487.967 3065041.769 -16382931.975 10 0 59708 70200.00000 0 -17407840.277 1918219.427 -18473545.684 10 0 59708 71100.00000 0 -15473418.207 494203.728 -20203138.318 10 0 59708 72000.00000 0 -13507227.652 -1193718.318 -21537797.292 10 0 59708 72900.00000 0 -11572247.780 -3119803.420 -22451363.299 10 0 59708 73800.00000 0 -9726873.458 -5246689.119 -22925955.484 10 0 59708 74700.00000 0 -8022570.228 -7526734.121 -22952328.286 10 0 59708 75600.00000 0 -6501841.810 -9903805.729 -22530052.474 10 0 59708 76500.00000 0 -5196596.368 -12315438.744 -21667516.886 10 0 59708 77400.00000 0 -4126980.232 -14695274.096 -20381751.356 10 0 59708 78300.00000 0 -3300727.183 -16975673.479 -18698075.319 10 0 59708 79200.00000 0 -2713048.851 -19090398.926 -16649580.340 10 0 59708 80100.00000 0 -2347068.269 -20977243.672 -14276458.421 10 0 59708 81000.00000 0 -2174775.126 -22580503.241 -11625191.160 10 0 59708 81900.00000 0 -2158458.882 -23853183.067 -8747617.567 10 0 59708 82800.00000 0 -2252555.730 -24758850.652 -5699900.882 10 0 59708 83700.00000 0 -2405828.062 -25273056.048 -2541416.351 10 0 59708 84600.00000 0 -2563781.555 -25384263.249 666416.765 10 0 59708 85500.00000 0 -2671215.695 -25094256.122 3861334.929 99